www.pogodaiklimat.ru

Погода и климат >> Архив погоды >> Россия >> Эвенкия >> Кербо


ПОГОДА в Кербо

  • Прогноз погоды в Кербо
  • Монитор погоды в Кербо

АРХИВ ПОГОДЫ в Кербо

Время (UTC), дата Ветер
(напр.,м/с)
 
Видим.   Явления Облачность Т
(С)
Тd
(С)
f
(%)
Тe
(С)
Тes
(С)
Комфортность P
(гПа)
Po
(гПа)
Тmin
(С)
Tmax
(С)
R
(мм)
R24
(мм)
S
(см)
09 13.09 ЮЗ 1 20 км 8/5 1000 м
[Sc]
+2.7 -2.8 67 +1 +2 1000.2 972.1
12 13.09 ЮЗ 1 20 км 4/4 1000 м
[Sc]
-0.4 -3.5 80 -2 -2 1001.7 973.9 +2.8
15 13.09 штиль 0 н/о пыльная буря 10/10 600 м
[Sc]
-2.0 -2.3 98 -3 -3 1002.6 934.1
00 14.09 штиль 0 20 км ясно -9.7 -10.5 94 -10 -10 1006.7 977.2 -12.9 0.4
03 14.09 З 1 20 км 10/10 1000 м
[Sc]
-0.8 -3.6 81 -3 -3 1005.1 976.6
06 14.09 З 2 20 км 10/10 1000 м
[Sc]
+1.9 -3.1 69 -1 -1 1005.1 976.8
09 14.09 З 2 20 км 10/10 1000 м
[Sc]
+3.7 -1.9 67 +1 +1 1006.2 978.0
12 14.09 З 2 20 км 10/10 1000 м
[Sc]
+4.3 -0.8 69 +2 +2 1007.2 979.1 +4.7
00 15.09 штиль 0 20 км 10/10 1000 м
[Sc]
+2.5 +1.7 94 +1 +1 1006.4 978.1 +1.7
03 15.09 З 1 10 км слаб. ливневой дождь 10/10 600 м
[Cb cap]
+2.2 +1.7 96 0 0 1006.2 977.9
06 15.09 З 1 20 км {ливн. осадки} 10/10 600 м
[Cb cap]
+4.5 +0.9 77 +3 +3 1005.2 977.2
09 15.09 З 2 20 км 9/9 600 м
[Cb cap Ci fib]
+4.5 +0.6 76 +2 +2 1005.8 977.7
12 15.09 З 2 20 км 9/9 1000 м
[Sc]
+2.8 -1.4 74 -0 -0 1007.1 978.8 +4.5 0.4
00 16.09 СЗ 1 20 км 8/8 1000 м
[Sc]
+0.4 -1.0 90 -2 -2 1010.7 982.1 +0.2
03 16.09 З 2 20 км 8/8 1000 м
[Sc]
+3.8 -0.5 73 +1 +2 1012.4 984.1
06 16.09 СЗ 2 20 км 9/9 1000 м
[Sc]
+7.1 -1.5 54 +5 +6 1013.3 985.4
09 16.09 СЗ 2 20 км 9/9 1000 м
[Sc]
+6.4 -2.0 55 +5 +5 1014.9 986.8
12 16.09 С 1 20 км 8/8 1000 м
[Sc]
+4.1 -2.7 61 +3 +3 1016.5 988.2 +7.4
00 17.09 штиль 0 20 км 10/10 1000 м
[Sc]
-0.9 -1.9 93 -2 -2 1017.9 989.1 -2.4
03 17.09 штиль 0 4000 м слаб. снег 10/10 1000 м
[Sc]
+0.5 -0.3 94 -1 -1 1047.5 988.8
06 17.09 ЮЗ 1 20 км {снег} 10/10 1000 м
[Sc]
+1.6 +1.3 98 -0 -0 1017.0 988.4
09 17.09 ЮЗ 1 20 км 10/10 1000 м
[Sc]
+2.2 +1.4 94 0 0 1017.0 988.5
12 17.09 штиль 0 20 км 10/10 1000 м
[Sc]
+2.0 +1.2 94 +1 +1 1017.0 988.5 +2.8 0.6
00 18.09 штиль 0 20 км {ливн. осадки} 10/10 600 м
[Cb cap]
+2.9 +2.6 98 +2 +2 1012.4 984.1 +1.5 3
06 18.09 штиль 0 20 км в посл. час ливневой дождь 10/10 600 м
[Cb cap]
+5.5 +4.8 95 +4 +4 1009.9 982.0
09 18.09 В 2 10 км слаб. ливневой дождь 10/10 600 м
[Cb cap]
+5.1 +4.4 95 +2 +2 1009.2 981.2
12 18.09 В 2 10 км слаб. ливневой дождь 10/10 600 м
[Cb cap]
+3.8 +3.1 95 +1 +1 1009.5 981.4 +5.5 10
03 19.09 штиль 0 20 км {туман} 10/10 600 м
[Cb cap]
+2.1 +0.8 91 +1 +1 1016.1 987.6
06 19.09 штиль 0 20 км {туман} 10/10 600 м
[Cb cap]
+5.5 +3.3 86 +5 +5 1016.5 988.3
09 19.09 СВ 1 20 км 4/3 1000 м
[Sc Ci fib]
+8.7 +2.5 65 +8 +9 1016.0 988.1
12 19.09 СВ 1 20 км 6/3 1000 м
[Sc Ci fib]
+5.2 +2.5 83 +4 +4 1015.7 987.5 +9.3
00 20.09 штиль 0 20 км {дождь} 10/10 1000 м
[Sc]
+6.1 +6.1 100 +5 +5 1004.5 976.9 +3.9 2
03 20.09 штиль 0 20 км 8/3 1000 м
[Sc As trans Ci fib]
+11.4 +10.2 92 +11 +13 1005.3 978.0

 

Местоположение метеостанции Кербо (Эвенкия, Россия): широта 62.72 долгота 101.10 высота над уровнем моря 230 м.

В архиве по умолчанию представлена погода в Кербо за последнюю неделю. Архивные данные за месяц целиком и за предыдущие месяцы, начиная с января 2011 года, Вы можете получить, выбрав интересующий диапазон дат из раскрывающегося списка и нажав кнопку "Ввод!".


*Определитесь, кто Вы:
робот инопланетянин человек

Внимание! Время в таблицах - всемирное. Для получения местного времени необходимо прибавить поправку, которая равна 7 ч.

Смотрите также архив погоды в соседних городах и на ближайших метеорологических станциях:

Погода в Стрелке-Чуне (Эвенкия, Россия) (139 км)
Погода в Муторае (Эвенкия, Россия) (159 км)
Погода в Кислокане (Эвенкия, Россия) (170 км)
Погода в Туре (Эвенкия, Россия) (182 км)
Погода в Тембенчи (Эвенкия, Россия) (270 км)
Погода в Байките (Эвенкия, Россия) (272 км)
Погода в Ванаваре (Эвенкия, Россия) (273 км)
Погода в Усть-Камо (Эвенкия, Россия) (292 км)
Погода в Чемдальске (Красноярский край, Россия) (363 км)
Погода в Ербогачене (Иркутская область, Россия) (395 км)

Пояснения к столбцам:

Ветер - указаны скорость ветра в м/с - средняя за 10 мин, порывы в срок и между сроками (в фигурных скобках) и направление, откуда дует ветер: С - северный, СВ - северо-восточный, В - восточный, ЮВ - юго-восточный, Ю - южный, ЮЗ - юго-западный, З - западный, СЗ - северо-западный.
Видимость - горизонтальная дальность видимости в метрах или километрах. При видимости от 1 до 10 км при отсутствии осадков обычно наблюдается дымка, при ухудшении видимости до 1 км и менее - туман. В сухую погоду видимость может ухудшаться дымом, пылью или мглою.
Явления - указаны атмосферные явления, наблюдавшиеся в срок или в последний час перед сроком; фигурными скобками обозначены явления, наблюдавшиеся между сроками (за 1-3 часа до срока); квадратными скобками обозначены град или гололедные отложения с указанием их диаметра в мм.
Облачность - указаны через наклонную черту общая и нижняя облачность в баллах и высота нижней границы облаков в метрах; квадратными скобками обозначены формы облаков: Ci - перистые, Cs - перисто-слоистые, Cc - перисто-кучевые, Ac - высококучевые, As - высокослоистые, Sc - слоисто-кучевые, Ns - слоисто-дождевые, Cu - кучевые, Cb - кучево-дождевые. Подробнее классификацию облаков см. в Атласе облаков (PDF).
T - Температура воздуха - температура, измеренная на высоте 2 м над землей.
Td - Температура точки росы - температура, при понижении до которой содержащийся в воздухе водяной пар достигнет насыщения.
f - Относительная влажность воздуха - влажноcть воздуха, измеренная на высоте 2 м над землей.
Te - Эффективная температура - температура, которую ощущает одетый по сезону человек в тени. Характеристика душности погоды. При расчете учитывается влияние влажности воздуха и скорости ветра на теплоощущения человека.
Tes - Эффективная температура на солнце - температура, которую ощущает человек, с поправкой на солнечный нагрев. Характеристика знойности погоды. Зависит от высоты солнца над горизонтом, облачности и скорости ветра. Ночью, в пасмурную погоду, а также при ветре 12 м/с и более поправка равна нулю.
P - Атмосферное давление - приведенное к уровню моря атмосферное давление.
Po - Атмосферное давление - измеренное на уровне метеостанции атмосферное давление.
Tmin - Минимальная температура - минимум температуры воздуха на высоте 2 м над землей.
Tmax - Максимальная температура - максимум температуры воздуха на высоте 2 м над землей.
R - Количество осадков - Количество выпавших осадков за период времени, мм. При наведении курсора мыши на число - период времени, за который выпало указанное количество осадков.
R24 - Количество осадков - Количество выпавших осадков за 24 часа, мм.
S - Снежный покров - Высота снежного покрова, см. При наведении курсора мыши на число - состояние снежного покрова и степень покрытия местности в баллах.